Adelaide, Australia

12:38 PM ACST on May 24, 2018 (GMT +0930)
Adelaide International

Weather History for YPAD - October, 2012

Change the Weather History Date:

Sunday, October 7, 2012

  Actual Average Record
Temperature  
Mean Temperature 52 °F -  
Max Temperature 62 °F 71 °F 86 °F (1999)
Min Temperature 42 °F 52 °F 42 °F (2010)
Degree Days  
Heating Degree Days 13    
Growing Degree Days 2 (Base 50)    
Moisture  
Dew Point 41 °F    
Average Humidity 60    
Maximum Humidity 93    
Minimum Humidity 30    
Precipitation  
Precipitation 0.00 in 0.04 in - ()
Sea Level Pressure  
Sea Level Pressure 30.16 in    
Wind  
Wind Speed 6 mph ()    
Max Wind Speed 18 mph    
Max Gust Speed -    
Visibility 7.5 miles    
Events      
Averages and records for this station are not official NWS values.
T = Trace of Precipitation, MM = Missing Value Source: Averaged Metar Reports

Daily Weather History Graph

Daily Weather History Graph

Search for Another Location

Airport or City:

Astronomy

Oct. 07, 2012 Rise Set
Actual Time 6:44 AM ACDT 7:23 PM ACDT
Civil Twilight 6:18 AM ACDT 7:49 PM ACDT
Nautical Twilight 5:48 AM ACDT 8:19 PM ACDT
Astronomical Twilight 5:17 AM ACDT 8:50 PM ACDT
Moon No Moon Rise 10:10 AM ACDT (10/7)
Length of Visible Light 13h 30m
Length of Day
12h 39m
Waning Gibbous, 62% of the Moon is Illuminated
Oct 7
Waning Gibbous
Oct 8
Last Quarter
Oct 15
New
Oct 22
First Quarter
Oct 30
Full

Hourly Weather History & Observations

Time (ACDT) Temp. Windchill Dew Point Humidity Pressure Visibility Wind Dir Wind Speed Gust Speed Precip Events Conditions
12:00 AM 48 °F - 43 °F 78% 30.23 in 22 mi South 3.5 mph - -   Partly Cloudy
12:00 AM 48.2 °F - 42.8 °F 82% 30.21 in 6.2 mi South 3.5 mph - N/A   Partly Cloudy
12:30 AM 46 °F - 41 °F 78% 30.23 in - South 2.3 mph - -  
12:30 AM 46.4 °F - 41.0 °F 81% 30.21 in 6.2 mi South 2.3 mph - N/A   Partly Cloudy
1:00 AM 46.4 °F 45.2 °F 42.8 °F 87% 30.21 in 6.2 mi SE 3.5 mph - N/A   Partly Cloudy
1:30 AM 44.6 °F 42.2 °F 42.8 °F 93% 30.21 in 6.2 mi SSE 4.6 mph - N/A   Scattered Clouds
3:00 AM 45 °F - 42 °F 86% 30.22 in 22 mi SE 4.6 mph - -   Partly Cloudy
3:00 AM 44.6 °F 42.2 °F 42.8 °F 93% 30.21 in 6.2 mi SE 4.6 mph - N/A   Partly Cloudy
3:30 AM 44.6 °F 43.1 °F 41.0 °F 87% 30.21 in 6.2 mi East 3.5 mph - N/A   Scattered Clouds
4:00 AM 46.4 °F - 42.8 °F 87% 30.18 in 6.2 mi Calm Calm - N/A   Mostly Cloudy
4:30 AM 44 °F - 41 °F 85% 30.20 in - Calm Calm - -  
4:30 AM 44.6 °F - 41.0 °F 87% 30.18 in 6.2 mi Calm Calm - N/A   Partly Cloudy
5:00 AM 42.8 °F 40.1 °F 39.2 °F 87% 30.21 in 6.2 mi ENE 4.6 mph - N/A   Mostly Cloudy
5:30 AM 46.4 °F 44.3 °F 42.8 °F 87% 30.21 in 6.2 mi East 4.6 mph - N/A   Mostly Cloudy
6:00 AM 46 °F - 42 °F 82% 30.23 in 22 mi ENE 4.6 mph - -   Partly Cloudy
6:00 AM 46.4 °F 44.3 °F 42.8 °F 87% 30.21 in 6.2 mi ENE 4.6 mph - N/A   Mostly Cloudy
6:30 AM 44.6 °F 43.1 °F 41.0 °F 87% 30.21 in 6.2 mi East 3.5 mph - N/A   Mostly Cloudy
7:00 AM 44.6 °F 41.4 °F 41.0 °F 87% 30.21 in 6.2 mi NE 5.8 mph - N/A   Mostly Cloudy
7:30 AM 48 °F - 44 °F 79% 30.25 in - NE 1.2 mph - -  
7:30 AM 48.2 °F - 42.8 °F 82% 30.24 in 6.2 mi NE 1.2 mph - N/A   Mostly Cloudy
8:00 AM 53.6 °F - 42.8 °F 67% 30.21 in 6.2 mi NE 1.2 mph - N/A   Mostly Cloudy
8:30 AM 55.4 °F - 41.0 °F 58% 30.21 in 6.2 mi ESE 3.5 mph - N/A   Scattered Clouds
9:00 AM 57 °F - 36 °F 34% 30.24 in 19 mi SE 10.4 mph - -   Partly Cloudy
9:00 AM 57.2 °F - 37.4 °F 48% 30.21 in 6.2 mi SE 10.4 mph - N/A   Partly Cloudy
9:30 AM 59.0 °F - 37.4 °F 45% 30.24 in 6.2 mi SSE 8.1 mph - N/A   Scattered Clouds
10:00 AM 59.0 °F - 35.6 °F 42% 30.24 in 6.2 mi SE 6.9 mph - N/A   Mostly Cloudy
10:30 AM 60 °F - 36 °F 30% 30.25 in - SSE 8.1 mph - -  
10:30 AM 59.0 °F - 37.4 °F 45% 30.24 in 6.2 mi SSE 8.1 mph - N/A   Scattered Clouds
11:00 AM 60.8 °F - 37.4 °F 42% 30.21 in 6.2 mi SSE 4.6 mph - N/A   Scattered Clouds
11:30 AM 60.8 °F - 37.4 °F 42% 30.21 in 6.2 mi SE 5.8 mph - N/A   Scattered Clouds
12:00 PM 60 °F - 39 °F 34% 30.20 in 19 mi WSW 11.5 mph - -   Partly Cloudy
12:00 PM 60.8 °F - 39.2 °F 45% 30.18 in 6.2 mi WSW 11.5 mph - N/A   Scattered Clouds
12:30 PM 60.8 °F - 41.0 °F 48% 30.18 in 6.2 mi WSW 13.8 mph - N/A   Scattered Clouds
1:00 PM 60.8 °F - 41.0 °F 48% 30.18 in 6.2 mi WSW 16.1 mph - N/A   Partly Cloudy
1:30 PM 60 °F - 41 °F 39% 30.18 in - WSW 15.0 mph - -  
1:30 PM 60.8 °F - 41.0 °F 48% 30.18 in 6.2 mi WSW 15.0 mph - N/A   Partly Cloudy
2:00 PM 60.8 °F - 41.0 °F 48% 30.15 in 6.2 mi WSW 13.8 mph - N/A   Partly Cloudy
2:30 PM 60.8 °F - 41.0 °F 48% 30.12 in 6.2 mi WSW 13.8 mph - N/A   Partly Cloudy
3:00 PM 61 °F - 42 °F 38% 30.14 in 19 mi SW 15.0 mph - -   Partly Cloudy
3:00 PM 60.8 °F - 42.8 °F 52% 30.12 in 6.2 mi SW 15.0 mph - N/A   Partly Cloudy
3:30 PM 60.8 °F - 42.8 °F 52% 30.12 in 6.2 mi SW 18.4 mph - N/A   Partly Cloudy
4:00 PM 60.8 °F - 42.8 °F 52% 30.12 in 6.2 mi SW 16.1 mph - N/A   Partly Cloudy
4:30 PM 61 °F - 43 °F 41% 30.12 in - SW 16.1 mph - -  
4:30 PM 60.8 °F - 42.8 °F 52% 30.09 in 6.2 mi SW 16.1 mph - N/A   Partly Cloudy
5:00 PM 60.8 °F - 42.8 °F 52% 30.09 in 6.2 mi SSW 16.1 mph - N/A   Partly Cloudy
5:30 PM 60.8 °F - 42.8 °F 52% 30.09 in 6.2 mi SSW 16.1 mph - N/A   Partly Cloudy
6:00 PM 60 °F - 43 °F 42% 30.10 in 19 mi SSW 13.8 mph - -   Partly Cloudy
6:00 PM 59.0 °F - 42.8 °F 55% 30.09 in 6.2 mi SSW 13.8 mph - N/A   Partly Cloudy
6:30 PM 59.0 °F - 44.6 °F 59% 30.06 in 6.2 mi SSW 13.8 mph - N/A   Partly Cloudy
7:00 PM 60.8 °F - 41.0 °F 48% 30.06 in - SSE 10.4 mph - N/A   Clear
7:30 PM 58 °F - 41 °F 43% 30.09 in - SSE 15.0 mph - -  
7:30 PM 57.2 °F - 41.0 °F 55% 30.09 in - SSE 15.0 mph - N/A   Clear
8:00 PM 55.4 °F - 39.2 °F 54% 30.09 in - SE 12.7 mph - N/A   Clear
8:30 PM 55.4 °F - 39.2 °F 54% 30.09 in - SE 12.7 mph - N/A   Clear
9:00 PM 54 °F - 39 °F 45% 30.12 in 25 mi SE 11.5 mph - -   Partly Cloudy
9:00 PM 53.6 °F - 39.2 °F 58% 30.09 in - SE 11.5 mph - N/A   Clear
9:30 PM 53.6 °F - 39.2 °F 58% 30.12 in - SE 12.7 mph - N/A   Clear
10:00 PM 53.6 °F - 39.2 °F 58% 30.12 in - SE 8.1 mph - N/A   Clear
10:30 PM 53 °F - 38 °F 46% 30.14 in - SE 6.9 mph - -  
10:30 PM 53.6 °F - 37.4 °F 54% 30.12 in - SE 6.9 mph - N/A   Clear
11:00 PM 51.8 °F - 39.2 °F 62% 30.12 in - ESE 8.1 mph - N/A   Clear
11:30 PM 51.8 °F - 39.2 °F 62% 30.12 in - East 4.6 mph - N/A   Clear
12:00 AM 52 °F - 39 °F 49% 30.10 in 25 mi ESE 8.1 mph - -   Partly Cloudy
12:00 AM 51.8 °F - 39.2 °F 62% 30.09 in - ESE 8.1 mph - N/A   Clear
12:30 AM 51.8 °F - 39.2 °F 62% 30.09 in - ESE 8.1 mph - N/A   Clear